Regional Weather Roundup
Issued by NWS

Home | Current Version | Previous Version | Text Only | Print | Product List | Glossary Off
Versions: 1 2 3 4 5 6 7 8 9 10 11 12 13 14 15 16 17 18 19 20 21 22 23 24 25 26 27 28 29 30 31 32 33 34 35 36 37 38 39 40 41 42 43 44 45 46 47 48 49 50

000
ASUS43 KDMX 041607
RWRIA

WEATHER ROUNDUP FOR IOWA
NATIONAL WEATHER SERVICE DES MOINES IA
1100 AM CDT TUE AUG 04 2015

NOTE: "FAIR" INDICATES FEW OR NO CLOUDS BELOW 12,000 FEET WITH NO
SIGNIFICANT WEATHER AND/OR OBSTRUCTIONS TO VISIBILITY.

* - THESE STATIONS ARE NOT NWS STATIONS...THUS NOT UNDER NWS
QUALITY CONTROL.  THEY ALSO DO NOT REPORT WEATHER SUCH
AS PRECIPITATION OR FOG.

IAZ001>003-012>014-020>022-031>034-043>046-041700-
   NORTHWEST IOWA

CITY           SKY/WX    TMP DP  RH WIND       PRES   REMARKS
CARROLL *      MOSUNNY   72  64  78 SE6       30.05R
CHEROKEE *     CLOUDY    72  63  73 E8        30.02F
DENISON *      SUNNY     72  64  78 S3        30.05R
LE MARS *      MOSUNNY   72  64  78 SE7       30.04R
ORANGE CITY *  SUNNY     70  57  64 E5        30.03S
SHELDON *      SUNNY     70  59  68 E6        30.01F
SIOUX CITY     CLOUDY    71  64  78 S7        30.03R
SPENCER        CLOUDY    72  55  55 SE9       30.04F
STORM LAKE *   SUNNY     70  59  68 E8        30.05S
$$

IAZ055>058-069>071-079>083-090>094-041700-
   SOUTHWEST IOWA

CITY           SKY/WX    TMP DP  RH WIND       PRES   REMARKS
ATLANTIC *     SUNNY     68  64  88 SW8       30.08R
AUDUBON *      SUNNY     72  64  78 S5        30.08R
CLARINDA *     LGT RAIN  66  66 100 N3        30.06F
COUNCIL BLFS * CLOUDY    66  64  94 SE8       30.06F
CRESTON *      DRIZZLE   64  63  94 CALM      30.08R
HARLAN  *      SUNNY     66  66 100 S8        30.11R
LAMONI         RAIN      65  63  93 E7        30.05F FOG
RED OAK *      RAIN      66  66 100 NW3       30.08R
SHENANDOAH *   CLOUDY    68  68 100 VRB5      30.05R
$$

IAZ047>049-059>061-072>074-084-041700-
   CENTRAL IOWA

CITY           SKY/WX    TMP DP  RH WIND       PRES   REMARKS
AMES           CLOUDY    74  62  66 CALM      30.05R
ANKENY *       SUNNY     75  61  60 SW3       30.04S
CHARITON *     PTSUNNY   66  63  88 SW3       30.06R
DES MOINES     CLOUDY    73  58  59 CALM      30.04S
GRINNELL*      PTSUNNY   73  59  60 W6        30.06R
KNOXVILLE *    SUNNY     70  63  78 W6        30.04R
MARSHALLTOWN   PTSUNNY   73  58  59 CALM      30.04S
PELLA *        CLOUDY    72  68  88 NW3       30.06S
PERRY *        PTSUNNY   73  63  68 CALM      30.05R
$$

IAZ004>006-015-016-023>025-035-036-041700-
   NORTH CENTRAL IOWA

CITY           SKY/WX    TMP DP  RH WIND       PRES   REMARKS
ALGONA *       SUNNY     73  50  43 E6        30.05S
CLARION *      SUNNY     73  55  53 NE3       30.05S
ESTHERVILLE      N/A     72  55  55 E5        30.04F
FORT DODGE *   CLOUDY    72  59  64 E6        30.06S
MASON CITY     CLOUDY    75  53  46 NW6       30.06S
FOREST CITY *  SUNNY     72  50  46 CALM      30.05S
IOWA FALLS *     N/A     73  55  53 CALM      30.06S
$$

IAZ007>011-017>019-026>030-037>042-050>054-066-041700-
   NORTHEAST IOWA

CITY           SKY/WX    TMP DP  RH WIND       PRES   REMARKS
CEDAR RAPIDS   PTSUNNY   74  65  73 NW7       30.02F
CHARLES CITY * SUNNY     72  59  64 CALM      30.05S
CLINTON *      PTSUNNY   75  59  57 NW8       30.04S
DECORAH *      SUNNY     70  54  56 CALM      30.03S
DUBUQUE        PTSUNNY   73  57  57 NW6       30.02F
MONTICELLO *   SUNNY     75  59  57 VRB5      30.02S
OELWEIN *        N/A    N/A N/A N/A CALM      30.04S
WATERLOO       CLOUDY    74  61  63 VRB3      30.03S
$$

IAZ064-065-067-068-078-041700-
   EAST CENTRAL IOWA

CITY           SKY/WX    TMP DP  RH WIND       PRES   REMARKS
DAVENPORT      PTSUNNY   77  59  53 NW6       30.02S
IOWA CITY      PTSUNNY   76  60  57 W6        30.03F
MT. PLEASANT * CLOUDY    79  54  41 CALM      30.03R
MUSCATINE *    SUNNY     79  59  50 VRB7      30.01F HX  80
QUAD CITIES    PTSUNNY   79  60  52 NW8       30.00F HX  80
$$

IAZ062-063-075>077-085>089-095>099-041700-
   SOUTHEAST IOWA

CITY           SKY/WX    TMP DP  RH WIND       PRES   REMARKS
BURLINGTON     CLOUDY    76  58  53 CALM      30.02S
FAIRFIELD *    MOSUNNY   75  63  64 SW3       30.04R
FORT MADISON * SUNNY     73  61  64 CALM      30.04R
KEOKUK *       CLOUDY    73  61  64 CALM      30.03R
OSKALOOSA *      N/A     73  64  73 W5        30.05R
CENTERVILLE *  SUNNY     66  64  94 SW6       30.09R
OTTUMWA        CLOUDY    72  65  78 W5        30.03R
WASHINGTON *   MOSUNNY   75  63  64 NW6       30.04R
$$

ABBREVIATIONS USED IN REMARKS
   TC - TEMPERATURES IN CELSIUS
  WCI - WIND CHILL INDEX
   HX - HEAT INDEX
  VSB - VISIBILITY
$$




USA.gov is the U.S. government's official web portal to all federal, state and local government web resources and services.